Regional Weather Roundup
Issued by NWS Midland/Odessa, TX

Skip options and go directly to product.
Home | Oldest Version | Previous Version | Current Version | All | Text Only | Save Text | Print | Product List | Glossary On

Skip product version selection by date and time.   
397
ASUS44 KMAF 161310
RWRMAF
MIDLAND AREA WEATHER ROUNDUP
NATIONAL WEATHER SERVICE MIDLAND TX
800 AM CDT WED APR 16 2014

...IN SOUTHWEST TEXAS AND SOUTHEAST NEW MEXICO...

CITY           SKY/WX    TMP DP  RH WIND       PRES   REMARKS
ALPINE         CLEAR     55  15  21 SW10      29.99S
ANDREWS        FAIR      46  16  30 S10       29.90R
ARTESIA        MOCLDY    39  10  30 S5        29.87R WCI  36
BIG SPRING     PTCLDY    51  15  24 S24G30    29.95R
CARLSBAD       PTCLDY    41  10  28 S6        29.87R WCI  37
DRYDEN           N/A     44  15  31 NE6       29.96R
FORT STOCKTON  CLEAR     46  16  30 SE14      29.89S WCI  40
GUAD PASS      PTCLDY    50  12  21 SW10      29.96R
HOBBS          CLEAR     41  12  30 S10       29.89R WCI  35
MARFA          CLEAR     34   7  32 NW5       30.01R WCI  30
MIDLAND AIRPK  PTCLDY    49  15  26 S15G25    29.92R
MIDLAND INTL   PTCLDY    48  16  27 S15       29.91R
ODESSA         PTCLDY    48  15  26 S14       29.91R
PECOS          CLEAR     42  14  32 NE7       29.88R WCI  38
PRESIDIO       FAIR      54  13  19 N7        29.92R
SEMINOLE       CLEAR     42  15  33 SW8       29.90S WCI  37
SNYDER         CLEAR     42  15  33 S13       29.93S WCI  36
WINK           PTCLDY    46  16  30 SE13      29.87R
$$
...OTHER STATIONS IN TEXAS...

CITY           SKY/WX    TMP DP  RH WIND       PRES   REMARKS
ABILENE        PTCLDY    47  20  34 S20G28    29.96R WCI  40
AMARILLO       MOCLDY    45  11  25 S15       29.81R WCI  38
AUSTIN         PTSUNNY   37  35  92 CALM      30.14R
BROWNSVILLE    PTSUNNY   54  49  83 CALM      30.09S
CORPUS CHRISTI MOSUNNY   51  44  77 SE6       30.10S
DALLAS FTW     CLOUDY    48  31  51 S17       30.12R
DEL RIO        CLEAR     47  25  42 E12       30.04R
EL PASO        PTCLDY    50  14  23 SW5       29.88R
HOUSTON INT    MOSUNNY   47  41  80 E13       30.18R
LUBBOCK        CLOUDY    46  14  27 S18       29.86R WCI  39
SAN ANGELO     CLEAR     48  19  31 S12G20    29.98R
SAN ANTONIO    SUNNY     45  35  68 CALM      30.12R
WACO           MOSUNNY   46  35  65 S10       30.13R
WICHITA FALLS  NOT AVBL
$$
...OTHER LOCATIONS IN NEW MEXICO...

CITY           SKY/WX    TMP DP  RH WIND       PRES   REMARKS
ALAMAGORDO     PTCLDY    41   3  20 SW3       29.89R
ALBUQUERQUE    PTCLDY    40   8  26 SE8       29.90R WCI  34
CANNON AFB     PTCLDY    44   8  22 W17       29.83S WCI  37
CLOVIS         PTCLDY    45   9  23 W13       29.84R WCI  38
HOLLOMAN AFB   PTCLDY    35   1  23 CALM      29.89R
ROSWELL        MOCLDY    43  11  27 S10       29.85R WCI  37
RUIDOSO        CLEAR     45   1  16 W6        29.99R
SANTA FE       CLEAR     39   7  26 SE3       29.90R
TRUTH OR CONSE PTCLDY    44   7  21 W13       29.89R WCI  38
TUCUMCARI      CLEAR     46  10  23 W10       29.78R
$$

USA.gov is the U.S. government's official web portal to all federal, state and local government web resources and services.